This demonstration page uses our WeatherBlox Daily Observations layout. Learn more.

Left ArrowRight Arrow

Hourly Observations for September 6, 2021

Temp ( °F °C ) Dew Point ( °F °C ) Humidity (%) Winds ( mph kmh ) Pressure ( in mb ) Visibility ( mi km ) Precip ( " mm )
12:54 am 00:54 Clear 68 20 61 16.1 78 78 SSE 3 6 29.96 1014 10 16 N/A
1:54 am 01:54 Clear 67 19.4 60 15.6 79 79 N N/A 29.95 1014 10 16 N/A
2:54 am 02:54 Clear 67 19.4 59 15 76 76 N N/A 29.95 1014 10 16 N/A
3:54 am 03:54 Clear 65 18.3 59 15 81 81 SSE 3 6 29.95 1014 10 16 N/A
4:54 am 04:54 Clear 63 17.2 59 15 87 87 S 3 6 29.95 1014 10 16 N/A
5:54 am 05:54 Clear 61 16.1 58 14.4 90 90 SSE 6 9 29.94 1014 10 16 N/A
6:54 am 06:54 Clear 62 16.7 59 15 90 90 S 5 7 29.94 1014 10 16 N/A
7:54 am 07:54 Sunny 64 17.8 61 16.1 90 90 SSE 6 9 29.96 1014 10 16 N/A
8:54 am 08:54 Sunny 69 20.6 63 17.2 81 81 S 7 11 29.96 1015 10 16 N/A
9:54 am 09:54 Sunny 75 23.9 63 17.2 66 66 SW 9 15 29.95 1014 10 16 N/A
10:54 am 10:54 Sunny 80 26.7 64 17.8 58 58 SW 6 9 29.94 1014 10 16 N/A
11:54 am 11:54 Sunny 83 28.3 66 18.9 57 57 S 8 13 29.92 1013 10 16 N/A
12:54 pm 12:54 Sunny 86 30 66 18.9 51 51 SSW 10 17 29.90 1012 10 16 N/A
1:54 pm 13:54 Sunny 89 31.7 65 18.3 45 45 SW 8 13 29.87 1011 10 16 N/A
2:54 pm 14:54 Sunny 90 32.2 67 19.4 47 47 S 14 22 29.84 1011 10 16 N/A
3:54 pm 15:54 Sunny 91 32.8 67 19.4 45 45 SSW 16 26 29.82 1010 10 16 N/A
4:54 pm 16:54 Sunny 90 32.2 68 20 48 48 SSW 16 26 29.80 1009 10 16 N/A
5:54 pm 17:54 Sunny 90 32.2 68 20 48 48 SSW 14 22 29.79 1009 10 16 N/A
6:54 pm 18:54 Sunny 88 31.1 68 20 52 52 SSW 10 17 29.79 1009 10 16 N/A
7:54 pm 19:54 Clear 78 25.6 68 20 71 71 S 8 13 29.78 1008 10 16 N/A
8:54 pm 20:54 Clear 75 23.9 67 19.4 76 76 S 10 17 29.78 1009 10 16 N/A
9:54 pm 21:54 Clear 76 24.4 66 18.9 72 72 S 10 17 29.79 1009 10 16 N/A
10:54 pm 22:54 Clear 76 24.4 65 18.3 69 69 S 8 13 29.79 1009 10 16 N/A
11:54 pm 23:54 Clear 75 23.9 65 18.3 71 71 S 10 17 29.78 1008 10 16 N/A

Powered by AerisWeather